{"data":{"norad_id":43011,"intl_designator":"2017-072B","name":"HEAD-1","alt_names":[],"object_type":"PAYLOAD","status":"ACTIVE","operator":null,"country":"PRC","launch_date":"2017-11-14","launch_site_code":"TAISC","launch_vehicle":null,"mission":null,"orbit_class":"UNKNOWN","rcs_meters":null,"size_class":null,"mass_kg":null,"dimensions":null,"purposes":[],"wikipedia_slug":null,"has_3d_model":false,"image_url":null,"decayed_at":null,"tle_current":{"epoch":"2026-05-25T04:47:38.818176Z","epoch_age_seconds":51815,"freshness":"FRESH","line1":"1 43011U 17072B   26145.19975484  .00000227  00000+0  10857-3 0  9995","line2":"2 43011  98.9563 163.0930 0009187 215.7148 144.3419 14.28781002444074","mean_motion":14.28781002,"eccentricity":0.0009187,"inclination_deg":98.9563,"raan_deg":163.093,"arg_perigee_deg":215.7148,"mean_anomaly_deg":144.3419,"bstar":0.00010857,"rev_number":44407,"period_min":100.78521466791,"perigee_km":789.21763667967,"apogee_km":802.39904384787,"semimajor_km":7173.9453402638,"source":"CELESTRAK","updated_at":"2026-05-25T13:37:55.754477Z"}}}